Hlavní strana
METAR-TAF:

METAR-TAF

Letiště :

Concord, Severní Karolína, Spojené státy americké

zeměpisná šířka: 35-23-07N, zeměpisná délka: 080-42-35W, výška: 210 m

Aktuální stav počasí

Zpráva byla vytvořena před 10 minutami, v 09:55 UTC
Severoseverovýchodní vítr 4 kt
Teplota 21°C
Vlhkost vzduchu 94%
Tlak 1020 hPa
Viditelnost: 16.1 km
Oblačno až skoro zataženo ve výšce 400 ft
Zataženo ve výšce 1400 ft

METAR: KJQF 070955Z AUTO 02004KT 10SM BKN004 OVC014 21/20 A3012 RMK AO2

Čas: 06:05 (10:05 UTC)


TAF: chybějící

Stav a předpovědi počasí z více než 4 000 letišť (zprávy METAR a TAF).

Červené a žluté tečky na mapě představují dostupné meteorologické stanice.

Když kurzor umístíte na tečku, zobrazí se název stanice.

Pak kliknutím zobrazíte stav a předpověď počasí.

Chcete-li změnit mapu, kliknutím na zelené tlačítko se znaménkem +mapu přiblížíte, kliknutím na zelené tlačítko se znaménkem – mapu oddálíte a kliknutím na zelené šipky přejdete na sousední mapy.


METAR-TAF: